Regional Weather Roundup
Issued by NWS

Home | Current Version | Previous Version | Graphics & Text | Print | Product List | Glossary On
Versions: 1 2 3 4 5 6 7 8 9 10 11 12 13 14 15 16 17 18 19 20 21 22 23 24 25 26 27 28 29 30 31 32 33 34 35 36 37 38 39 40 41 42 43 44 45 46 47 48 49 50
000
ASUS43 KOAX 011002
RWRNE

WEATHER ROUNDUP FOR NEBRASKA
NATIONAL WEATHER SERVICE OMAHA NE
400 AM CST SUN FEB 01 2015

NOTES: SATELLITE DATA IS BEING USED TO AUGMENT CLOUD COVER ABOVE
       12000 FEET.
       "FAIR" INDICATES FEW OR NO CLOUDS BELOW 12,000 FEET WITH NO
       SIGNIFICANT WEATHER AND/OR OBSTRUCTIONS TO VISIBILITY.

  * THESE STATIONS DO NOT REPORT WEATHER SUCH AS RAIN...SNOW OR FOG.

NEZ001>004-019>022-054>056-011100-
NEBRASKA PANHANDLE

CITY           SKY/WX    TMP DP  RH WIND       PRES   REMARKS
SCOTTSBLUFF    CLOUDY    23  17  78 NW20      30.11R WCI   8
ALLIANCE       LGT SNOW  13   9  84 N16       30.09R FOG     WCI  -3
CHADRON        LGT SNOW  12   8  84 N14       30.20R VSB 1   WCI  -3
KIMBALL        CLOUDY    21  17  83 N20G26    30.03R WCI   6
SIDNEY         CLOUDY    18  14  84 N23       30.04R WCI   0
$$

NEZ057>060-069>072-079>082-011100-
SOUTHWEST NEBRASKA

CITY           SKY/WX    TMP DP  RH WIND       PRES   REMARKS
NORTH PLATTE   FLURRIES  13   7  77 N21G31    30.06R WCI  -5
IMPERIAL       LGT SNOW  18  12  77 N25G32    30.05R WCI   0
LEXINGTON      CLOUDY    17  13  84 N31       30.00R FOG     WCI  -3
MCCOOK         LGT SNOW  19  14  81 NW25G35   30.02R WCI   1
OGALLALA       CLOUDY    17  12  83 N16G23    30.07S WCI   1
$$

NEZ005>010-023>029-035>040-094-011100-
NORTH CENTRAL NEBRASKA

CITY           SKY/WX    TMP DP  RH WIND       PRES   REMARKS
VALENTINE      LGT SNOW   8   3  80 N20G29    30.16R WCI -11
AINSWORTH      LGT SNOW   6   3  84 N29       30.12R WCI -17
BROKEN BOW     FOG       12   8  84 N33G43    30.01R VSB 1/2 WCI -10
O`NEILL        LGT SNOW   9   6  87 N26G33    30.07R WCI -12
ORD            LGT SNOW  12   7  80 N25G35    30.01R VSB 3/4 WCI  -8
THEDFORD       LGT SNOW  10   7  85 N26G33    30.09R WCI -11
$$

NEZ041-046>049-061>064-073>077-083>087-011100-
SOUTH CENTRAL NEBRASKA

CITY           SKY/WX    TMP DP  RH WIND       PRES   REMARKS
GRAND ISLAND   LGT SNOW  18  15  88 N32G39    29.92R VSB 1   WCI  -2
AURORA         LGT SNOW  22  21  93 N29G36    29.88R WCI   5
HASTINGS       LGT SNOW  20  16  84 N32G45    29.89R VSB 1   WCI   1
HEBRON         LGT SNOW  30  28  92 N13G21    29.80R WCI  20
HOLDREGE       LGT SNOW  18  15  88 N30       29.95R WCI  -1
KEARNEY *      CLOUDY    18  12  79 N29G37    29.94R WCI  -2
YORK           LGT SNOW  27  25  93 N21G29    29.84R VSB 1   WCI  13
$$

NEZ011>018-030>034-042>045-011100-
NORTHEAST NEBRASKA

CITY           SKY/WX    TMP DP  RH WIND       PRES   REMARKS
NORFOLK        LGT SNOW  24  20  84 N22       29.93R FOG     WCI   9
ALBION         LGT SNOW  17  12  82 N22G36    29.95R WCI  -1
BLAIR          LGT SNOW  33  32  96 N7        29.80S WCI  27
FREMONT        LGT SNOW  31  30  97 N8        29.83S WCI  23
TEKAMAH        LGT SNOW  29  27  92 N21       29.86R FOG     WCI  16
WAYNE          LGT SNOW  24  21  89 N21G26    29.94R WCI   9
$$

NEZ050>053-065>068-078-088>093-011100-
SOUTHEAST NEBRASKA

CITY           SKY/WX    TMP DP  RH WIND       PRES   REMARKS
LINCOLN        LGT SNOW  32  31  96 N12       29.80F FOG     WCI  23
OMAHA EPPLEY   LGT SNOW  33  32  96 NE8       29.81F FOG     WCI  26
BEATRICE       LGT SNOW  32  32  99 N6        29.76F WCI  26
FALLS CITY     SNOW      32  31  96 NE3       29.74F VSB 1/2
NEBRASKA CITY  LGT SNOW  32  32 100 N6        29.76F WCI  26
PLATTSMOUTH    LGT SNOW  32  31  96 N3        29.78F
$$

NEZ044-045-051>053-067-011100-
OMAHA AREA

CITY           SKY/WX    TMP DP  RH WIND       PRES   REMARKS
OMAHA EPPLEY   LGT SNOW  33  32  96 NE8       29.81F FOG     WCI  26
BLAIR          LGT SNOW  33  32  96 N7        29.80S WCI  27
FREMONT        LGT SNOW  31  30  97 N8        29.83S WCI  23
MILLARD        LGT SNOW  33  32  95 CALM      29.81R
OFFUTT AFB     LGT SNOW  33  32  97 NE5       29.79S FOG     WCI  28
PLATTSMOUTH    LGT SNOW  32  31  96 N3        29.78F
WAHOO          LGT SNOW  32  30  92 N17G24    29.81S WCI  21
$$



USA.gov is the U.S. government's official web portal to all federal, state and local government web resources and services.